owner,sensor,date,latitude,longitude,vertical_datum,wind_speed,wind_to_direction,wind_speed_of_gust,qcFlag 
COMPS,ioos:station:USF.COMPS:EGK:1,2013-02-04T17:00:00Z,27.6010,-82.7510,10.0,1.0,90.0,,'1111122,1111122,1111122' 
COMPS,ioos:station:USF.COMPS:EGK:1,2013-02-04T19:00:00Z,27.6010,-82.7510,10.0,2.6,260.0,,'1111122,1111122,1111122' 
COMPS,ioos:station:USF.COMPS:EGK:1,2013-02-04T20:00:00Z,27.6010,-82.7510,10.0,2.6,270.0,,'1111122,1111122,1111122' 
COMPS,ioos:station:USF.COMPS:EGK:1,2013-02-04T22:00:00Z,27.6010,-82.7510,10.0,1.5,270.0,,'1111122,1111122,1111122' 
COMPS,ioos:station:USF.COMPS:EGK:1,2013-02-04T23:00:00Z,27.6010,-82.7510,10.0,1.0,310.0,,'1111122,1111122,1111122' 
COMPS,ioos:station:USF.COMPS:EGK:1,2013-02-05T00:00:00Z,27.6010,-82.7510,10.0,1.0,350.0,,'1111122,1111122,1111122' 
COMPS,ioos:station:USF.COMPS:EGK:1,2013-02-05T01:00:00Z,27.6010,-82.7510,10.0,2.6,330.0,,'1111122,1111122,1111122' 
COMPS,ioos:station:USF.COMPS:EGK:1,2013-02-05T03:00:00Z,27.6010,-82.7510,10.0,1.5,10.0,,'1111122,1111122,1111122' 
COMPS,ioos:station:USF.COMPS:EGK:1,2013-02-05T04:00:00Z,27.6010,-82.7510,10.0,3.6,50.0,,'1111122,1111122,1111122' 
COMPS,ioos:station:USF.COMPS:EGK:1,2013-02-05T05:00:00Z,27.6010,-82.7510,10.0,3.1,50.0,,'1111122,1111122,1111122' 
COMPS,ioos:station:USF.COMPS:EGK:1,2013-02-05T06:00:00Z,27.6010,-82.7510,10.0,2.6,60.0,,'1111122,1111122,1111122' 
COMPS,ioos:station:USF.COMPS:EGK:1,2013-02-05T07:00:00Z,27.6010,-82.7510,10.0,3.6,90.0,,'1111122,1111122,1111122' 
COMPS,ioos:station:USF.COMPS:EGK:1,2013-02-05T08:00:00Z,27.6010,-82.7510,10.0,4.6,100.0,,'1111122,1111122,1111122' 
COMPS,ioos:station:USF.COMPS:EGK:1,2013-02-05T09:00:00Z,27.6010,-82.7510,10.0,4.1,130.0,,'1111122,1111122,1111122' 
COMPS,ioos:station:USF.COMPS:EGK:1,2013-02-05T10:00:00Z,27.6010,-82.7510,10.0,3.6,120.0,,'1111122,1111122,1111122' 
COMPS,ioos:station:USF.COMPS:EGK:1,2013-02-05T11:00:00Z,27.6010,-82.7510,10.0,2.1,100.0,,'1111122,1111122,1111122' 
COMPS,ioos:station:USF.COMPS:EGK:1,2013-02-05T12:00:00Z,27.6010,-82.7510,10.0,3.6,120.0,,'1111122,1111122,1111122' 
COMPS,ioos:station:USF.COMPS:EGK:1,2013-02-05T13:00:00Z,27.6010,-82.7510,10.0,4.1,90.0,,'1111122,1111122,1111122' 
COMPS,ioos:station:USF.COMPS:EGK:1,2013-02-05T14:00:00Z,27.6010,-82.7510,10.0,4.1,80.0,,'1111122,1111122,1111122' 
COMPS,ioos:station:USF.COMPS:EGK:1,2013-02-05T15:00:00Z,27.6010,-82.7510,10.0,4.1,90.0,,'1111122,1111122,1111122' 
COMPS,ioos:station:USF.COMPS:EGK:1,2013-02-05T16:00:00Z,27.6010,-82.7510,10.0,3.1,110.0,,'1111122,1111122,1111122' 
COMPS,ioos:station:USF.COMPS:EGK:1,2013-02-05T17:00:00Z,27.6010,-82.7510,10.0,2.1,100.0,,'1111122,1111122,1111122' 
COMPS,ioos:station:USF.COMPS:EGK:1,2013-02-05T18:00:00Z,27.6010,-82.7510,10.0,0.5,110.0,,'1111122,1111122,1111122' 
COMPS,ioos:station:USF.COMPS:EGK:1,2013-02-05T19:00:00Z,27.6010,-82.7510,10.0,1.0,130.0,,'1111122,1111122,1111122' 
COMPS,ioos:station:USF.COMPS:EGK:1,2013-02-05T20:00:00Z,27.6010,-82.7510,10.0,3.6,170.0,,'1111122,1111122,1111122' 
COMPS,ioos:station:USF.COMPS:EGK:1,2013-02-05T21:00:00Z,27.6010,-82.7510,10.0,2.6,190.0,,'1111122,1111122,1111122' 
COMPS,ioos:station:USF.COMPS:EGK:1,2013-02-05T22:00:00Z,27.6010,-82.7510,10.0,1.5,250.0,,'1111122,1111122,1111122' 
COMPS,ioos:station:USF.COMPS:EGK:1,2013-02-05T23:00:00Z,27.6010,-82.7510,10.0,0.5,260.0,,'1111122,1111122,1111122' 
COMPS,ioos:station:USF.COMPS:EGK:1,2013-02-06T00:00:00Z,27.6010,-82.7510,10.0,1.0,210.0,,'1111122,1111122,1111122' 
COMPS,ioos:station:USF.COMPS:EGK:1,2013-02-06T02:00:00Z,27.6010,-82.7510,10.0,0.5,250.0,,'1111122,1111122,1111122' 
COMPS,ioos:station:USF.COMPS:EGK:1,2013-02-06T03:00:00Z,27.6010,-82.7510,10.0,0.5,180.0,,'1111122,1111122,1111122' 
COMPS,ioos:station:USF.COMPS:EGK:1,2013-02-06T04:00:00Z,27.6010,-82.7510,10.0,2.1,120.0,,'1111122,1111122,1111122' 
COMPS,ioos:station:USF.COMPS:EGK:1,2013-02-06T05:00:00Z,27.6010,-82.7510,10.0,2.6,100.0,,'1111122,1111122,1111122' 
COMPS,ioos:station:USF.COMPS:EGK:1,2013-02-06T06:00:00Z,27.6010,-82.7510,10.0,2.6,120.0,,'1111122,1111122,1111122' 
COMPS,ioos:station:USF.COMPS:EGK:1,2013-02-06T07:00:00Z,27.6010,-82.7510,10.0,2.6,130.0,,'1111122,1111122,1111122' 
COMPS,ioos:station:USF.COMPS:EGK:1,2013-02-06T08:00:00Z,27.6010,-82.7510,10.0,2.1,130.0,,'1111122,1111122,1111122' 
COMPS,ioos:station:USF.COMPS:EGK:1,2013-02-06T10:00:00Z,27.6010,-82.7510,10.0,3.6,120.0,,'1111122,1111122,1111122' 
COMPS,ioos:station:USF.COMPS:EGK:1,2013-02-06T11:00:00Z,27.6010,-82.7510,10.0,3.6,120.0,,'1111122,1111122,1111122' 
COMPS,ioos:station:USF.COMPS:EGK:1,2013-02-06T12:00:00Z,27.6010,-82.7510,10.0,4.1,120.0,,'1111122,1111122,1111122' 
COMPS,ioos:station:USF.COMPS:EGK:1,2013-02-06T13:00:00Z,27.6010,-82.7510,10.0,4.6,140.0,,'1111122,1111122,1111122' 
COMPS,ioos:station:USF.COMPS:EGK:1,2013-02-06T15:00:00Z,27.6010,-82.7510,10.0,3.1,110.0,,'1111122,1111122,1111122' 
COMPS,ioos:station:USF.COMPS:EGK:1,2013-02-06T16:00:00Z,27.6010,-82.7510,10.0,3.6,110.0,,'1111122,1111122,1111122' 
COMPS,ioos:station:USF.COMPS:EGK:1,2013-02-06T17:00:00Z,27.6010,-82.7510,10.0,1.5,150.0,,'1111122,1111122,1111122' 
COMPS,ioos:station:USF.COMPS:EGK:1,2013-02-06T20:00:00Z,27.6010,-82.7510,10.0,4.6,180.0,,'1111122,1111122,1111122' 
COMPS,ioos:station:USF.COMPS:EGK:1,2013-02-06T21:00:00Z,27.6010,-82.7510,10.0,2.6,230.0,,'1111122,1111122,1111122' 
COMPS,ioos:station:USF.COMPS:EGK:1,2013-02-06T22:00:00Z,27.6010,-82.7510,10.0,2.6,220.0,,'1111122,1111122,1111122' 
COMPS,ioos:station:USF.COMPS:EGK:1,2013-02-08T18:00:00Z,27.6010,-82.7510,10.0,5.1,330.0,,'1111122,1111122,1111122' 
COMPS,ioos:station:USF.COMPS:EGK:1,2013-02-08T19:00:00Z,27.6010,-82.7510,10.0,5.1,320.0,,'1111122,1111122,1111122' 
COMPS,ioos:station:USF.COMPS:EGK:1,2013-02-08T20:00:00Z,27.6010,-82.7510,10.0,6.7,340.0,,'1111122,1111122,1111122' 
COMPS,ioos:station:USF.COMPS:EGK:1,2013-02-08T21:00:00Z,27.6010,-82.7510,10.0,7.7,340.0,,'1111122,1111122,1111122' 
COMPS,ioos:station:USF.COMPS:EGK:1,2013-02-08T22:00:00Z,27.6010,-82.7510,10.0,7.7,340.0,,'1111122,1111122,1111122' 
COMPS,ioos:station:USF.COMPS:EGK:1,2013-02-08T23:00:00Z,27.6010,-82.7510,10.0,5.1,350.0,,'1111122,1111122,1111122' 
COMPS,ioos:station:USF.COMPS:EGK:1,2013-02-09T00:00:00Z,27.6010,-82.7510,10.0,6.2,350.0,,'1111122,1111122,1111122' 
COMPS,ioos:station:USF.COMPS:EGK:1,2013-02-09T01:00:00Z,27.6010,-82.7510,10.0,6.7,350.0,,'1111122,1111122,1111122' 
COMPS,ioos:station:USF.COMPS:EGK:1,2013-02-09T02:00:00Z,27.6010,-82.7510,10.0,4.1,350.0,,'1111122,1111122,1111122' 
COMPS,ioos:station:USF.COMPS:EGK:1,2013-02-09T03:00:00Z,27.6010,-82.7510,10.0,4.1,350.0,,'1111122,1111122,1111122' 
COMPS,ioos:station:USF.COMPS:EGK:1,2013-02-09T04:00:00Z,27.6010,-82.7510,10.0,4.6,350.0,,'1111122,1111122,1111122' 
COMPS,ioos:station:USF.COMPS:EGK:1,2013-02-09T05:00:00Z,27.6010,-82.7510,10.0,4.6,360.0,,'1111122,1111122,1111122' 
COMPS,ioos:station:USF.COMPS:EGK:1,2013-02-09T06:00:00Z,27.6010,-82.7510,10.0,3.6,30.0,,'1111122,1111122,1111122' 
COMPS,ioos:station:USF.COMPS:EGK:1,2013-02-09T07:00:00Z,27.6010,-82.7510,10.0,3.6,20.0,,'1111122,1111122,1111122' 
COMPS,ioos:station:USF.COMPS:EGK:1,2013-02-09T09:00:00Z,27.6010,-82.7510,10.0,5.7,30.0,,'1111122,1111122,1111122' 
COMPS,ioos:station:USF.COMPS:EGK:1,2013-02-09T10:00:00Z,27.6010,-82.7510,10.0,5.7,40.0,,'1111122,1111122,1111122' 
COMPS,ioos:station:USF.COMPS:EGK:1,2013-02-09T12:00:00Z,27.6010,-82.7510,10.0,6.7,40.0,,'1111122,1111122,1111122' 
COMPS,ioos:station:USF.COMPS:EGK:1,2013-02-09T13:00:00Z,27.6010,-82.7510,10.0,8.2,50.0,,'1111122,1111122,1111122' 
COMPS,ioos:station:USF.COMPS:EGK:1,2013-02-09T14:00:00Z,27.6010,-82.7510,10.0,7.2,50.0,,'1111122,1111122,1111122' 
COMPS,ioos:station:USF.COMPS:EGK:1,2013-02-09T15:00:00Z,27.6010,-82.7510,10.0,6.2,60.0,,'1111122,1111122,1111122' 
COMPS,ioos:station:USF.COMPS:EGK:1,2013-02-09T16:00:00Z,27.6010,-82.7510,10.0,6.7,60.0,,'1111122,1111122,1111122' 
COMPS,ioos:station:USF.COMPS:EGK:1,2013-02-09T17:00:00Z,27.6010,-82.7510,10.0,5.1,60.0,,'1111122,1111122,1111122' 
COMPS,ioos:station:USF.COMPS:EGK:1,2013-02-09T18:00:00Z,27.6010,-82.7510,10.0,3.6,80.0,,'1111122,1111122,1111122' 
COMPS,ioos:station:USF.COMPS:EGK:1,2013-02-09T19:00:00Z,27.6010,-82.7510,10.0,3.6,40.0,,'1111122,1111122,1111122' 
COMPS,ioos:station:USF.COMPS:EGK:1,2013-02-09T20:00:00Z,27.6010,-82.7510,10.0,3.6,330.0,,'1111122,1111122,1111122' 
COMPS,ioos:station:USF.COMPS:EGK:1,2013-02-09T21:00:00Z,27.6010,-82.7510,10.0,5.1,330.0,,'1111122,1111122,1111122' 
COMPS,ioos:station:USF.COMPS:EGK:1,2013-02-09T22:00:00Z,27.6010,-82.7510,10.0,5.1,340.0,,'1111122,1111122,1111122' 
COMPS,ioos:station:USF.COMPS:EGK:1,2013-02-09T23:00:00Z,27.6010,-82.7510,10.0,3.6,350.0,,'1111122,1111122,1111122' 
COMPS,ioos:station:USF.COMPS:EGK:1,2013-02-10T00:00:00Z,27.6010,-82.7510,10.0,2.1,360.0,,'1111122,1111122,1111122' 
COMPS,ioos:station:USF.COMPS:EGK:1,2013-02-10T01:00:00Z,27.6010,-82.7510,10.0,3.6,80.0,,'1111122,1111122,1111122' 
COMPS,ioos:station:USF.COMPS:EGK:1,2013-02-10T03:00:00Z,27.6010,-82.7510,10.0,7.7,100.0,,'1111122,1111122,1111122' 
COMPS,ioos:station:USF.COMPS:EGK:1,2013-02-10T04:00:00Z,27.6010,-82.7510,10.0,6.7,90.0,,'1111122,1111122,1111122' 
COMPS,ioos:station:USF.COMPS:EGK:1,2013-02-10T05:00:00Z,27.6010,-82.7510,10.0,7.2,90.0,,'1111122,1111122,1111122' 
COMPS,ioos:station:USF.COMPS:EGK:1,2013-02-10T06:00:00Z,27.6010,-82.7510,10.0,7.7,80.0,,'1111122,1111122,1111122' 
COMPS,ioos:station:USF.COMPS:EGK:1,2013-02-10T07:00:00Z,27.6010,-82.7510,10.0,8.2,90.0,,'1111122,1111122,1111122' 
COMPS,ioos:station:USF.COMPS:EGK:1,2013-02-10T08:00:00Z,27.6010,-82.7510,10.0,7.2,100.0,,'1111122,1111122,1111122' 
COMPS,ioos:station:USF.COMPS:EGK:1,2013-02-10T09:00:00Z,27.6010,-82.7510,10.0,6.2,110.0,,'1111122,1111122,1111122' 
COMPS,ioos:station:USF.COMPS:EGK:1,2013-02-10T10:00:00Z,27.6010,-82.7510,10.0,7.7,110.0,,'1111122,1111122,1111122' 
COMPS,ioos:station:USF.COMPS:EGK:1,2013-02-10T11:00:00Z,27.6010,-82.7510,10.0,7.2,110.0,,'1111122,1111122,1111122' 
COMPS,ioos:station:USF.COMPS:EGK:1,2013-02-10T12:00:00Z,27.6010,-82.7510,10.0,7.2,120.0,,'1111122,1111122,1111122' 
COMPS,ioos:station:USF.COMPS:EGK:1,2013-02-10T13:00:00Z,27.6010,-82.7510,10.0,7.2,120.0,,'1111122,1111122,1111122' 
COMPS,ioos:station:USF.COMPS:EGK:1,2013-02-10T15:00:00Z,27.6010,-82.7510,10.0,6.2,110.0,,'1111122,1111122,1111122' 
COMPS,ioos:station:USF.COMPS:EGK:1,2013-02-10T16:00:00Z,27.6010,-82.7510,10.0,7.2,120.0,,'1111122,1111122,1111122' 
COMPS,ioos:station:USF.COMPS:EGK:1,2013-02-10T17:00:00Z,27.6010,-82.7510,10.0,5.1,130.0,,'1111122,1111122,1111122' 
COMPS,ioos:station:USF.COMPS:EGK:1,2013-02-10T18:00:00Z,27.6010,-82.7510,10.0,4.1,130.0,,'1111122,1111122,1111122' 
COMPS,ioos:station:USF.COMPS:EGK:1,2013-02-10T19:00:00Z,27.6010,-82.7510,10.0,3.6,150.0,,'1111122,1111122,1111122' 
COMPS,ioos:station:USF.COMPS:EGK:1,2013-02-10T20:00:00Z,27.6010,-82.7510,10.0,3.6,190.0,,'1111122,1111122,1111122' 
COMPS,ioos:station:USF.COMPS:EGK:1,2013-02-10T21:00:00Z,27.6010,-82.7510,10.0,3.6,210.0,,'1111122,1111122,1111122' 
COMPS,ioos:station:USF.COMPS:EGK:1,2013-02-10T22:00:00Z,27.6010,-82.7510,10.0,3.1,220.0,,'1111122,1111122,1111122' 
COMPS,ioos:station:USF.COMPS:EGK:1,2013-02-10T23:00:00Z,27.6010,-82.7510,10.0,2.1,200.0,,'1111122,1111122,1111122' 
COMPS,ioos:station:USF.COMPS:EGK:1,2013-02-11T00:00:00Z,27.6010,-82.7510,10.0,2.6,180.0,,'1111122,1111122,1111122' 
COMPS,ioos:station:USF.COMPS:EGK:1,2013-02-11T01:00:00Z,27.6010,-82.7510,10.0,3.6,150.0,,'1111122,1111122,1111122' 
COMPS,ioos:station:USF.COMPS:EGK:1,2013-02-11T02:00:00Z,27.6010,-82.7510,10.0,5.7,140.0,,'1111122,1111122,1111122' 
COMPS,ioos:station:USF.COMPS:EGK:1,2013-02-11T03:00:00Z,27.6010,-82.7510,10.0,6.2,140.0,,'1111122,1111122,1111122' 
COMPS,ioos:station:USF.COMPS:EGK:1,2013-02-11T04:00:00Z,27.6010,-82.7510,10.0,5.1,130.0,,'1111122,1111122,1111122' 
COMPS,ioos:station:USF.COMPS:EGK:1,2013-02-11T05:00:00Z,27.6010,-82.7510,10.0,5.7,140.0,,'1111122,1111122,1111122' 
COMPS,ioos:station:USF.COMPS:EGK:1,2013-02-11T06:00:00Z,27.6010,-82.7510,10.0,5.7,140.0,,'1111122,1111122,1111122' 
COMPS,ioos:station:USF.COMPS:EGK:1,2013-02-11T07:00:00Z,27.6010,-82.7510,10.0,5.1,150.0,,'1111122,1111122,1111122' 
COMPS,ioos:station:USF.COMPS:EGK:1,2013-02-11T08:00:00Z,27.6010,-82.7510,10.0,6.2,150.0,,'1111122,1111122,1111122' 
COMPS,ioos:station:USF.COMPS:EGK:1,2013-02-11T09:00:00Z,27.6010,-82.7510,10.0,5.1,150.0,,'1111122,1111122,1111122' 
COMPS,ioos:station:USF.COMPS:EGK:1,2013-02-11T10:00:00Z,27.6010,-82.7510,10.0,5.7,150.0,,'1111122,1111122,1111122' 
COMPS,ioos:station:USF.COMPS:EGK:1,2013-02-11T11:00:00Z,27.6010,-82.7510,10.0,5.1,150.0,,'1111122,1111122,1111122' 
COMPS,ioos:station:USF.COMPS:EGK:1,2013-02-11T12:00:00Z,27.6010,-82.7510,10.0,4.6,140.0,,'1111122,1111122,1111122' 
COMPS,ioos:station:USF.COMPS:EGK:1,2013-02-11T13:00:00Z,27.6010,-82.7510,10.0,5.7,140.0,,'1111122,1111122,1111122' 
COMPS,ioos:station:USF.COMPS:EGK:1,2013-02-11T14:00:00Z,27.6010,-82.7510,10.0,5.1,140.0,,'1111122,1111122,1111122' 
COMPS,ioos:station:USF.COMPS:EGK:1,2013-02-11T16:00:00Z,27.6010,-82.7510,10.0,5.7,150.0,,'1111122,1111122,1111122' 
COMPS,ioos:station:USF.COMPS:EGK:1,2013-02-11T17:00:00Z,27.6010,-82.7510,10.0,5.7,180.0,,'1111122,1111122,1111122' 
COMPS,ioos:station:USF.COMPS:EGK:1,2013-02-11T18:00:00Z,27.6010,-82.7510,10.0,6.7,180.0,,'1111122,1111122,1111122' 
COMPS,ioos:station:USF.COMPS:EGK:1,2013-02-11T19:00:00Z,27.6010,-82.7510,10.0,5.7,180.0,,'1111122,1111122,1111122' 
COMPS,ioos:station:USF.COMPS:EGK:1,2013-02-11T20:00:00Z,27.6010,-82.7510,10.0,5.1,190.0,,'1111122,1111122,1111122' 
COMPS,ioos:station:USF.COMPS:EGK:1,2013-02-11T21:00:00Z,27.6010,-82.7510,10.0,4.1,190.0,,'1111122,1111122,1111122' 
COMPS,ioos:station:USF.COMPS:EGK:1,2013-02-11T22:00:00Z,27.6010,-82.7510,10.0,4.6,190.0,,'1111122,1111122,1111122' 
COMPS,ioos:station:USF.COMPS:EGK:1,2013-02-11T23:00:00Z,27.6010,-82.7510,10.0,3.6,190.0,,'1111122,1111122,1111122' 
COMPS,ioos:station:USF.COMPS:EGK:1,2013-02-12T00:00:00Z,27.6010,-82.7510,10.0,3.6,190.0,,'1111122,1111122,1111122' 
COMPS,ioos:station:USF.COMPS:EGK:1,2013-02-12T01:00:00Z,27.6010,-82.7510,10.0,2.6,200.0,,'1111122,1111122,1111122' 
COMPS,ioos:station:USF.COMPS:EGK:1,2013-02-12T02:00:00Z,27.6010,-82.7510,10.0,2.1,180.0,,'1111122,1111122,1111122' 
COMPS,ioos:station:USF.COMPS:EGK:1,2013-02-12T04:00:00Z,27.6010,-82.7510,10.0,3.1,180.0,,'1111122,1111122,1111122' 
COMPS,ioos:station:USF.COMPS:EGK:1,2013-02-12T05:00:00Z,27.6010,-82.7510,10.0,4.1,190.0,,'1111122,1111122,1111122' 
COMPS,ioos:station:USF.COMPS:EGK:1,2013-02-12T06:00:00Z,27.6010,-82.7510,10.0,3.6,190.0,,'1111122,1111122,1111122' 
COMPS,ioos:station:USF.COMPS:EGK:1,2013-02-12T07:00:00Z,27.6010,-82.7510,10.0,3.1,190.0,,'1111122,1111122,1111122' 
COMPS,ioos:station:USF.COMPS:EGK:1,2013-02-12T09:00:00Z,27.6010,-82.7510,10.0,3.1,190.0,,'1111122,1111122,1111122' 
COMPS,ioos:station:USF.COMPS:EGK:1,2013-02-12T10:00:00Z,27.6010,-82.7510,10.0,3.6,190.0,,'1111122,1111122,1111122' 
COMPS,ioos:station:USF.COMPS:EGK:1,2013-02-12T11:00:00Z,27.6010,-82.7510,10.0,4.1,180.0,,'1111122,1111122,1111122' 
COMPS,ioos:station:USF.COMPS:EGK:1,2013-02-12T12:00:00Z,27.6010,-82.7510,10.0,5.1,180.0,,'1111122,1111122,1111122' 
COMPS,ioos:station:USF.COMPS:EGK:1,2013-02-12T13:00:00Z,27.6010,-82.7510,10.0,3.1,180.0,,'1111122,1111122,1111122' 
COMPS,ioos:station:USF.COMPS:EGK:1,2013-02-12T15:00:00Z,27.6010,-82.7510,10.0,5.7,180.0,,'1111122,1111122,1111122' 
COMPS,ioos:station:USF.COMPS:EGK:1,2013-02-12T16:00:00Z,27.6010,-82.7510,10.0,4.6,180.0,,'1111122,1111122,1111122' 
COMPS,ioos:station:USF.COMPS:EGK:1,2013-02-12T17:00:00Z,27.6010,-82.7510,10.0,5.1,180.0,,'1111122,1111122,1111122' 
COMPS,ioos:station:USF.COMPS:EGK:1,2013-02-12T18:00:00Z,27.6010,-82.7510,10.0,5.7,180.0,,'1111122,1111122,1111122' 
COMPS,ioos:station:USF.COMPS:EGK:1,2013-02-12T19:00:00Z,27.6010,-82.7510,10.0,6.2,180.0,,'1111122,1111122,1111122' 
COMPS,ioos:station:USF.COMPS:EGK:1,2013-02-12T20:00:00Z,27.6010,-82.7510,10.0,6.7,190.0,,'1111122,1111122,1111122' 
COMPS,ioos:station:USF.COMPS:EGK:1,2013-02-12T21:00:00Z,27.6010,-82.7510,10.0,4.6,190.0,,'1111122,1111122,1111122' 
COMPS,ioos:station:USF.COMPS:EGK:1,2013-02-12T22:00:00Z,27.6010,-82.7510,10.0,3.6,190.0,,'1111122,1111122,1111122' 
COMPS,ioos:station:USF.COMPS:EGK:1,2013-02-12T23:00:00Z,27.6010,-82.7510,10.0,3.6,190.0,,'1111122,1111122,1111122' 
COMPS,ioos:station:USF.COMPS:EGK:1,2013-02-13T00:00:00Z,27.6010,-82.7510,10.0,3.6,200.0,,'1111122,1111122,1111122' 
COMPS,ioos:station:USF.COMPS:EGK:1,2013-02-13T01:00:00Z,27.6010,-82.7510,10.0,3.6,200.0,,'1111122,1111122,1111122' 
COMPS,ioos:station:USF.COMPS:EGK:1,2013-02-13T02:00:00Z,27.6010,-82.7510,10.0,3.1,190.0,,'1111122,1111122,1111122' 
COMPS,ioos:station:USF.COMPS:EGK:1,2013-02-13T03:00:00Z,27.6010,-82.7510,10.0,3.6,200.0,,'1111122,1111122,1111122' 
COMPS,ioos:station:USF.COMPS:EGK:1,2013-02-13T04:00:00Z,27.6010,-82.7510,10.0,3.6,190.0,,'1111122,1111122,1111122' 
COMPS,ioos:station:USF.COMPS:EGK:1,2013-02-13T05:00:00Z,27.6010,-82.7510,10.0,3.6,200.0,,'1111122,1111122,1111122' 
COMPS,ioos:station:USF.COMPS:EGK:1,2013-02-13T06:00:00Z,27.6010,-82.7510,10.0,3.6,200.0,,'1111122,1111122,1111122' 
COMPS,ioos:station:USF.COMPS:EGK:1,2013-02-13T07:00:00Z,27.6010,-82.7510,10.0,3.6,200.0,,'1111122,1111122,1111122' 
COMPS,ioos:station:USF.COMPS:EGK:1,2013-02-13T08:00:00Z,27.6010,-82.7510,10.0,4.1,200.0,,'1111122,1111122,1111122' 
COMPS,ioos:station:USF.COMPS:EGK:1,2013-02-13T09:00:00Z,27.6010,-82.7510,10.0,4.1,200.0,,'1111122,1111122,1111122' 
COMPS,ioos:station:USF.COMPS:EGK:1,2013-02-13T10:00:00Z,27.6010,-82.7510,10.0,3.6,190.0,,'1111122,1111122,1111122' 
COMPS,ioos:station:USF.COMPS:EGK:1,2013-02-13T11:00:00Z,27.6010,-82.7510,10.0,3.6,190.0,,'1111122,1111122,1111122' 
COMPS,ioos:station:USF.COMPS:EGK:1,2013-02-13T12:00:00Z,27.6010,-82.7510,10.0,3.1,190.0,,'1111122,1111122,1111122' 
COMPS,ioos:station:USF.COMPS:EGK:1,2013-02-13T13:00:00Z,27.6010,-82.7510,10.0,3.1,200.0,,'1111122,1111122,1111122' 
COMPS,ioos:station:USF.COMPS:EGK:1,2013-02-13T14:00:00Z,27.6010,-82.7510,10.0,3.6,200.0,,'1111122,1111122,1111122' 
COMPS,ioos:station:USF.COMPS:EGK:1,2013-02-13T15:00:00Z,27.6010,-82.7510,10.0,4.1,190.0,,'1111122,1111122,1111122' 
COMPS,ioos:station:USF.COMPS:EGK:1,2013-02-13T16:00:00Z,27.6010,-82.7510,10.0,4.6,190.0,,'1111122,1111122,1111122' 
COMPS,ioos:station:USF.COMPS:EGK:1,2013-02-13T17:00:00Z,27.6010,-82.7510,10.0,5.1,190.0,,'1111122,1111122,1111122' 
COMPS,ioos:station:USF.COMPS:EGK:1,2013-02-13T18:00:00Z,27.6010,-82.7510,10.0,5.1,200.0,,'1111122,1111122,1111122' 
COMPS,ioos:station:USF.COMPS:EGK:1,2013-02-13T19:00:00Z,27.6010,-82.7510,10.0,4.6,200.0,,'1111122,1111122,1111122' 
COMPS,ioos:station:USF.COMPS:EGK:1,2013-02-13T20:00:00Z,27.6010,-82.7510,10.0,5.1,210.0,,'1111122,1111122,1111122' 
COMPS,ioos:station:USF.COMPS:EGK:1,2013-02-13T21:00:00Z,27.6010,-82.7510,10.0,5.1,200.0,,'1111122,1111122,1111122' 
COMPS,ioos:station:USF.COMPS:EGK:1,2013-02-13T22:00:00Z,27.6010,-82.7510,10.0,4.1,210.0,,'1111122,1111122,1111122' 
COMPS,ioos:station:USF.COMPS:EGK:1,2013-02-13T23:00:00Z,27.6010,-82.7510,10.0,4.1,210.0,,'1111122,1111122,1111122' 
COMPS,ioos:station:USF.COMPS:EGK:1,2013-02-14T00:00:00Z,27.6010,-82.7510,10.0,4.1,210.0,,'1111122,1111122,1111122' 
COMPS,ioos:station:USF.COMPS:EGK:1,2013-02-14T01:00:00Z,27.6010,-82.7510,10.0,7.7,350.0,,'1111122,1111122,1111122' 
COMPS,ioos:station:USF.COMPS:EGK:1,2013-02-14T02:00:00Z,27.6010,-82.7510,10.0,7.7,20.0,,'1111122,1111122,1111122' 
COMPS,ioos:station:USF.COMPS:EGK:1,2013-02-14T03:00:00Z,27.6010,-82.7510,10.0,4.6,20.0,,'1111122,1111122,1111122' 
COMPS,ioos:station:USF.COMPS:EGK:1,2013-02-14T04:00:00Z,27.6010,-82.7510,10.0,5.7,350.0,,'1111122,1111122,1111122' 
COMPS,ioos:station:USF.COMPS:EGK:1,2013-02-14T05:00:00Z,27.6010,-82.7510,10.0,5.1,10.0,,'1111122,1111122,1111122' 
COMPS,ioos:station:USF.COMPS:EGK:1,2013-02-14T06:00:00Z,27.6010,-82.7510,10.0,4.6,40.0,,'1111122,1111122,1111122' 
COMPS,ioos:station:USF.COMPS:EGK:1,2013-02-14T07:00:00Z,27.6010,-82.7510,10.0,3.6,30.0,,'1111122,1111122,1111122' 
COMPS,ioos:station:USF.COMPS:EGK:1,2013-02-14T08:00:00Z,27.6010,-82.7510,10.0,2.6,80.0,,'1111122,1111122,1111122' 
COMPS,ioos:station:USF.COMPS:EGK:1,2013-02-14T09:00:00Z,27.6010,-82.7510,10.0,2.6,80.0,,'1111122,1111122,1111122' 
COMPS,ioos:station:USF.COMPS:EGK:1,2013-02-14T10:00:00Z,27.6010,-82.7510,10.0,2.6,70.0,,'1111122,1111122,1111122' 
COMPS,ioos:station:USF.COMPS:EGK:1,2013-02-14T11:00:00Z,27.6010,-82.7510,10.0,2.6,80.0,,'1111122,1111122,1111122' 
COMPS,ioos:station:USF.COMPS:EGK:1,2013-02-14T12:00:00Z,27.6010,-82.7510,10.0,1.5,90.0,,'1111122,1111122,1111122' 
COMPS,ioos:station:USF.COMPS:EGK:1,2013-02-14T13:00:00Z,27.6010,-82.7510,10.0,2.6,60.0,,'1111122,1111122,1111122' 
COMPS,ioos:station:USF.COMPS:EGK:1,2013-02-14T14:00:00Z,27.6010,-82.7510,10.0,3.6,40.0,,'1111122,1111122,1111122' 
COMPS,ioos:station:USF.COMPS:EGK:1,2013-02-14T15:00:00Z,27.6010,-82.7510,10.0,4.6,10.0,,'1111122,1111122,1111122' 
COMPS,ioos:station:USF.COMPS:EGK:1,2013-02-14T16:00:00Z,27.6010,-82.7510,10.0,7.7,350.0,,'1111122,1111122,1111122' 
COMPS,ioos:station:USF.COMPS:EGK:1,2013-02-14T17:00:00Z,27.6010,-82.7510,10.0,9.3,360.0,,'1111122,1111122,1111122' 
COMPS,ioos:station:USF.COMPS:EGK:1,2013-02-14T18:00:00Z,27.6010,-82.7510,10.0,7.2,10.0,,'1111122,1111122,1111122' 
COMPS,ioos:station:USF.COMPS:EGK:1,2013-02-14T19:00:00Z,27.6010,-82.7510,10.0,4.1,50.0,,'1111122,1111122,1111122' 
COMPS,ioos:station:USF.COMPS:EGK:1,2013-02-14T20:00:00Z,27.6010,-82.7510,10.0,3.1,10.0,,'1111122,1111122,1111122' 
COMPS,ioos:station:USF.COMPS:EGK:1,2013-02-14T21:00:00Z,27.6010,-82.7510,10.0,2.6,60.0,,'1111122,1111122,1111122' 
COMPS,ioos:station:USF.COMPS:EGK:1,2013-02-14T22:00:00Z,27.6010,-82.7510,10.0,3.1,70.0,,'1111122,1111122,1111122' 
COMPS,ioos:station:USF.COMPS:EGK:1,2013-02-14T23:00:00Z,27.6010,-82.7510,10.0,4.1,360.0,,'1111122,1111122,1111122' 
COMPS,ioos:station:USF.COMPS:EGK:1,2013-02-15T00:00:00Z,27.6010,-82.7510,10.0,6.7,360.0,,'1111122,1111122,1111122' 
COMPS,ioos:station:USF.COMPS:EGK:1,2013-02-15T01:00:00Z,27.6010,-82.7510,10.0,5.7,60.0,,'1111122,1111122,1111122' 
COMPS,ioos:station:USF.COMPS:EGK:1,2013-02-15T03:00:00Z,27.6010,-82.7510,10.0,4.1,130.0,,'1111122,1111122,1111122' 
COMPS,ioos:station:USF.COMPS:EGK:1,2013-02-15T04:00:00Z,27.6010,-82.7510,10.0,3.6,120.0,,'1111122,1111122,1111122' 
COMPS,ioos:station:USF.COMPS:EGK:1,2013-02-15T06:00:00Z,27.6010,-82.7510,10.0,1.0,210.0,,'1111122,1111122,1111122' 
COMPS,ioos:station:USF.COMPS:EGK:1,2013-02-15T07:00:00Z,27.6010,-82.7510,10.0,5.1,350.0,,'1111122,1111122,1111122' 
COMPS,ioos:station:USF.COMPS:EGK:1,2013-02-15T08:00:00Z,27.6010,-82.7510,10.0,5.7,360.0,,'1111122,1111122,1111122' 
COMPS,ioos:station:USF.COMPS:EGK:1,2013-02-15T09:00:00Z,27.6010,-82.7510,10.0,6.2,20.0,,'1111122,1111122,1111122' 
COMPS,ioos:station:USF.COMPS:EGK:1,2013-02-16T09:00:00Z,27.6010,-82.7510,10.0,5.7,10.0,,'1111122,1111122,1111122' 
COMPS,ioos:station:USF.COMPS:EGK:1,2013-02-16T11:00:00Z,27.6010,-82.7510,10.0,6.2,20.0,,'1111122,1111122,1111122' 
COMPS,ioos:station:USF.COMPS:EGK:1,2013-02-16T13:00:00Z,27.6010,-82.7510,10.0,3.6,30.0,,'1111122,1111122,1111122' 
COMPS,ioos:station:USF.COMPS:EGK:1,2013-02-16T14:00:00Z,27.6010,-82.7510,10.0,2.6,20.0,,'1111122,1111122,1111122' 
COMPS,ioos:station:USF.COMPS:EGK:1,2013-02-17T09:00:00Z,27.6010,-82.7510,10.0,9.3,360.0,,'1111122,1111122,1111122' 
COMPS,ioos:station:USF.COMPS:EGK:1,2013-02-17T10:00:00Z,27.6010,-82.7510,10.0,8.2,40.0,,'1111122,1111122,1111122' 
COMPS,ioos:station:USF.COMPS:EGK:1,2013-02-17T14:00:00Z,27.6010,-82.7510,10.0,9.3,40.0,,'1111122,1111122,1111122' 
COMPS,ioos:station:USF.COMPS:EGK:1,2013-02-17T16:00:00Z,27.6010,-82.7510,10.0,7.2,20.0,,'1111122,1111122,1111122' 
COMPS,ioos:station:USF.COMPS:EGK:1,2013-02-17T17:00:00Z,27.6010,-82.7510,10.0,5.7,10.0,,'1111122,1111122,1111122' 
COMPS,ioos:station:USF.COMPS:EGK:1,2013-02-17T18:00:00Z,27.6010,-82.7510,10.0,6.2,360.0,,'1111122,1111122,1111122' 